Dayton, OH

12:03 PM EST on February 25, 2017 (GMT -0500)
Wright-Patterson Air Force Base

Weather History for KFFO - January, 2014

Change the Weather History Date:

Sunday, January 5, 2014

  Actual Average Record
Temperature  
Mean Temperature 31 °F -  
Max Temperature 38 °F 36 °F 62 °F (1998)
Min Temperature 23 °F 21 °F -5 °F (1999)
Degree Days  
Heating Degree Days 34    
Moisture  
Dew Point 31 °F    
Average Humidity 90    
Maximum Humidity 100    
Minimum Humidity 62    
Precipitation  
Precipitation 0.69 in - - ()
Snow  
Snow 0.00 in - - ()
Snow Depth 2.00 in    
Sea Level Pressure  
Sea Level Pressure 29.72 in    
Wind  
Wind Speed 5 mph (NNE)    
Max Wind Speed 21 mph    
Max Gust Speed 30 mph    
Visibility 5 miles    
Events Fog , Rain , Snow    
Averages and records for this station are not official NWS values.
T = Trace of Precipitation, MM = Missing Value Source: NWS Daily Summary

Daily Weather History Graph

Daily Weather History Graph

Search for Another Location

Airport or City:

Trip Planner

Search our weather history database for the weather conditions in past years. The results will help you decide how hot, cold, wet, or windy it might be!

Date:

Astronomy

Jan. 05, 2014 Rise Set
Actual Time 7:57 AM EST 5:25 PM EST
Civil Twilight 7:27 AM EST 5:55 PM EST
Nautical Twilight 6:53 AM EST 6:29 PM EST
Astronomical Twilight 6:21 AM EST 7:02 PM EST
Moon 10:39 AM EST (1/5) 10:52 PM EST (1/5)
Length of Visible Light 10h 28m
Length of Day
9h 28m
Waxing Crescent, 24% of the Moon is Illuminated
Jan 5
Waxing Crescent
Jan 7
First Quarter
Jan 15
Full
Jan 24
Last Quarter
Jan 30
New

Hourly Weather History & Observations

Time (EST) Temp. Windchill Dew Point Humidity Pressure Visibility Wind Dir Wind Speed Gust Speed Precip Events Conditions
12:58 AM 31.5 °F 26.8 °F 23.2 °F 71% 30.09 in 10.0 mi ESE 4.6 mph - N/A   Overcast
1:58 AM 32.7 °F 27.3 °F 21.0 °F 62% 30.08 in 10.0 mi SE 5.8 mph - N/A   Overcast
2:58 AM 32.5 °F - 21.2 °F 63% 30.09 in 10.0 mi South 2.3 mph - N/A   Overcast
3:58 AM 32.9 °F 29.8 °F 22.6 °F 66% 30.07 in 10.0 mi South 3.5 mph - N/A   Overcast
4:48 AM 32.0 °F 28.7 °F 23.0 °F 69% 30.02 in 10.0 mi NNE 3.5 mph - N/A   Mostly Cloudy
4:58 AM 31.8 °F 28.5 °F 24.8 °F 75% 30.04 in 10.0 mi NNE 3.5 mph - N/A   Mostly Cloudy
5:58 AM 32.0 °F - 23.0 °F 69% 30.04 in 10.0 mi ESE 2.3 mph - N/A   Overcast
6:58 AM 32.5 °F - 24.1 °F 71% 30.03 in 10.0 mi East 2.3 mph - N/A   Overcast
7:58 AM 33.6 °F 30.6 °F 25.5 °F 72% 30.03 in 10.0 mi North 3.5 mph - N/A   Overcast
8:16 AM 32.0 °F - 26.6 °F 80% 29.99 in 10.0 mi North 1.2 mph - N/A   Overcast
8:18 AM 32.0 °F - 26.6 °F 80% 29.99 in 10.0 mi North 2.3 mph - N/A   Overcast
8:28 AM 32.0 °F 28.7 °F 26.6 °F 80% 29.99 in 2.5 mi NE 3.5 mph - N/A   Light Drizzle
8:48 AM 32.0 °F 28.7 °F 28.4 °F 87% 29.99 in 3.0 mi SE 3.5 mph - N/A Rain , Snow Light Rain
8:58 AM 32.9 °F 28.5 °F 29.7 °F 88% 30.01 in 6.0 mi ESE 4.6 mph - 0.00 in Rain , Snow Light Rain
9:08 AM 32.0 °F 28.7 °F 30.2 °F 93% 29.98 in 6.0 mi East 3.5 mph - N/A   Light Drizzle
9:38 AM 33.8 °F 28.6 °F 30.2 °F 87% 29.95 in 6.0 mi ESE 5.8 mph - N/A   Light Drizzle
9:58 AM 34.3 °F 27.7 °F 30.9 °F 87% 29.96 in 6.0 mi ESE 8.1 mph - 0.00 in   Light Drizzle
10:08 AM 33.8 °F 27.7 °F 32.0 °F 93% 29.92 in 6.0 mi ESE 6.9 mph - N/A   Light Drizzle
10:28 AM 35.6 °F 31.7 °F 32.0 °F 87% 29.90 in 7.0 mi East 4.6 mph - N/A   Overcast
10:38 AM 35.6 °F 32.8 °F 32.0 °F 87% 29.90 in 7.0 mi East 3.5 mph - N/A   Overcast
10:58 AM 35.2 °F - 32.9 °F 91% 29.91 in 7.0 mi East 2.3 mph - 0.00 in   Overcast
11:08 AM 35.6 °F 31.7 °F 32.0 °F 87% 29.87 in 4.0 mi East 4.6 mph - N/A   Light Drizzle
11:28 AM 35.6 °F - 33.8 °F 93% 29.86 in 4.0 mi Variable 1.2 mph - N/A Rain Light Rain
11:48 AM 35.6 °F 31.7 °F 33.8 °F 93% 29.83 in 2.0 mi East 4.6 mph - N/A   Light Drizzle
11:58 AM 35.6 °F 31.7 °F 33.8 °F 93% 29.85 in 3.0 mi East 4.6 mph - 0.03 in   Light Drizzle
12:18 PM 35.6 °F 30.7 °F 35.6 °F 100% 29.78 in 4.0 mi East 5.8 mph - N/A   Overcast
12:38 PM 37.4 °F 30.8 °F 35.6 °F 93% 29.75 in 10.0 mi ESE 9.2 mph - N/A   Overcast
12:48 PM 37.4 °F 31.4 °F 35.6 °F 93% 29.74 in 10.0 mi ESE 8.1 mph - N/A   Overcast
12:58 PM 37.6 °F 31.0 °F 34.5 °F 89% 29.75 in 10.0 mi SE 9.2 mph - 0.00 in   Overcast
1:18 PM 37.4 °F 32.1 °F 33.8 °F 87% 29.70 in 10.0 mi SSE 6.9 mph - N/A   Light Drizzle
1:28 PM 37.4 °F 34.9 °F 33.8 °F 87% 29.69 in 10.0 mi Variable 3.5 mph - N/A   Light Drizzle
1:58 PM 38.3 °F - 34.9 °F 87% 29.69 in 10.0 mi Variable 2.3 mph - 0.00 in   Light Drizzle
2:58 PM 37.0 °F 32.4 °F 34.9 °F 92% 29.69 in 2.0 mi NW 5.8 mph - 0.03 in Rain Rain
3:08 PM 37.4 °F 34.9 °F 35.6 °F 93% 29.65 in 3.0 mi North 3.5 mph - N/A Rain Rain
3:28 PM 35.6 °F 31.7 °F 35.6 °F 100% 29.66 in 2.0 mi NW 4.6 mph - N/A Rain Heavy Rain
3:48 PM 35.6 °F 31.7 °F 35.6 °F 100% 29.65 in 1.8 mi North 4.6 mph - N/A Rain Rain
3:58 PM 36.1 °F 33.5 °F 35.1 °F 96% 29.67 in 1.8 mi NNE 3.5 mph - 0.14 in Rain Light Rain
4:08 PM 35.6 °F 31.7 °F 33.8 °F 93% 29.62 in 0.5 mi East 4.6 mph - N/A Fog , Rain Light Rain
4:18 PM 35.6 °F 32.8 °F 33.8 °F 93% 29.62 in 1.5 mi East 3.5 mph - N/A Rain Light Rain
4:38 PM 35.6 °F - 35.6 °F 100% 29.60 in 1.5 mi NNE 1.2 mph - N/A Rain Rain
4:58 PM 35.6 °F - 35.6 °F 100% 29.61 in 0.8 mi North 2.3 mph - 0.11 in Rain Light Rain
5:08 PM 35.6 °F - 35.6 °F 100% 29.57 in 0.8 mi NNE 2.3 mph - N/A Rain Light Rain
5:18 PM 35.6 °F - 33.8 °F 93% 29.57 in 0.5 mi NNW 2.3 mph - N/A Fog , Rain Light Rain
5:28 PM 35.6 °F - 35.6 °F 100% 29.56 in 0.5 mi NNW 2.3 mph - N/A Fog , Rain Light Rain
5:38 PM 35.6 °F 32.8 °F 35.6 °F 100% 29.55 in 0.8 mi North 3.5 mph - N/A Rain Light Rain
5:48 PM 35.6 °F 31.7 °F 33.8 °F 93% 29.54 in 0.8 mi NNE 4.6 mph - N/A Rain Light Rain
5:58 PM 35.6 °F 31.7 °F 33.8 °F 93% 29.56 in 1.0 mi NNE 4.6 mph - 0.08 in Rain Rain
6:08 PM 35.6 °F 31.7 °F 33.8 °F 93% 29.52 in 1.0 mi NE 4.6 mph - N/A Rain Light Rain
6:18 PM 35.6 °F - 33.8 °F 93% 29.52 in 1.5 mi NNE 1.2 mph - N/A Rain Rain
6:28 PM 35.6 °F - 35.6 °F 100% 29.52 in 1.5 mi NE 1.2 mph - N/A Rain Rain
6:38 PM 35.6 °F 32.8 °F 35.6 °F 100% 29.50 in 3.0 mi East 3.5 mph - N/A Rain Light Rain
6:58 PM 35.4 °F - 34.7 °F 97% 29.53 in 2.5 mi Calm Calm - 0.14 in Rain Rain
7:08 PM 35.6 °F 32.8 °F 35.6 °F 100% 29.48 in 2.5 mi East 3.5 mph - N/A Rain Rain
7:18 PM 35.6 °F - 35.6 °F 100% 29.48 in 3.0 mi East 2.3 mph - N/A Rain Light Rain
7:28 PM 35.6 °F - 35.6 °F 100% 29.46 in 2.5 mi ENE 1.2 mph - N/A Rain Light Rain
7:48 PM 37.4 °F 32.8 °F 37.4 °F 100% 29.47 in 3.0 mi NW 5.8 mph 23.0 mph N/A Rain Light Rain
7:58 PM 37.8 °F 30.7 °F 37.2 °F 98% 29.49 in 4.0 mi NW 10.4 mph - 0.07 in Rain Light Rain
8:18 PM 35.6 °F 27.1 °F 35.6 °F 100% 29.46 in 4.0 mi NW 12.7 mph - N/A Rain Rain
8:38 PM 35.6 °F 28.6 °F 35.6 °F 100% 29.47 in 4.0 mi WNW 9.2 mph - N/A Rain Light Rain
8:58 PM 34.7 °F 25.1 °F 33.6 °F 96% 29.52 in 7.0 mi WNW 15.0 mph 18.4 mph 0.05 in Rain Light Rain
9:08 PM 32.0 °F 23.0 °F 32.0 °F 100% 29.49 in 5.0 mi WNW 11.5 mph - N/A Snow Light Snow
9:11 PM 32.0 °F 23.0 °F 32.0 °F 100% 29.48 in 2.0 mi WNW 11.5 mph - N/A Snow Light Snow
9:54 PM 32.0 °F 19.8 °F 30.2 °F 93% 29.50 in 2.0 mi WNW 20.7 mph 28.8 mph N/A Snow Light Snow
9:58 PM 32.0 °F 20.8 °F 28.4 °F 87% 29.53 in 2.0 mi WNW 17.3 mph 28.8 mph 0.03 in Snow Light Snow
10:08 PM 28.4 °F 16.2 °F 26.6 °F 93% 29.51 in 2.5 mi WNW 17.3 mph 25.3 mph N/A Snow Light Snow
10:28 PM 26.6 °F 14.3 °F 24.8 °F 93% 29.54 in 3.0 mi WNW 16.1 mph 23.0 mph N/A Snow Light Snow
10:38 PM 26.6 °F 12.7 °F 23.0 °F 86% 29.56 in 1.8 mi WNW 20.7 mph 28.8 mph N/A Snow Light Snow
10:48 PM 24.8 °F 10.3 °F 23.0 °F 93% 29.57 in 1.5 mi NW 20.7 mph 29.9 mph N/A Snow Light Snow
10:58 PM 25.0 °F 11.3 °F 21.9 °F 88% 29.62 in 6.0 mi WNW 18.4 mph 27.6 mph 0.00 in Snow Blowing Snow
11:18 PM 24.8 °F 11.9 °F 21.2 °F 86% 29.62 in 6.0 mi WNW 16.1 mph 29.9 mph N/A Snow Blowing Snow
11:58 PM 23.7 °F 8.9 °F 19.0 °F 82% 29.69 in 9.0 mi WNW 20.7 mph 29.9 mph 0.01 in Snow Low Drifting Snow